Tracking 19706 objects as of 16-Jun-2019
HD Live streaming from Space Station
objects crossing your sky now

RADUGA 17

Track RADUGA 17 now!
RADUGA 17 is classified as:


NORAD ID: 16250
Int'l Code: 1985-107A
Perigee: 35,794.1 km
Apogee: 35,866.6 km
Inclination: 13.7 °
Period: 1,438.0 minutes
Semi major axis: 42201 km
RCS: 3.981 m2 (large)
Launch date: November 15, 1985
Source: Commonwealth of Independent States (former USSR) (CIS)
Launch site: TYURATAM MISSILE AND SPACE COMPLEX (TTMTR)
aabbcc
Your satellite tracking list
Your tracking list is empty




NASA's NSSDC Master Catalog

Two Line Element Set (TLE):
1 16250U 85107A   19166.59213369 +.00000112 +00000-0 +00000-0 0  9990
2 16250 013.6566 339.4647 0008593 148.2918 029.2788 01.00141384126048
Source of the keplerian elements: AFSPC